,,PA_Meas_PMT16A,,PR_Meas_QMR101_102,,RH_Meas_QMH101,,SR_Meas_QMS101,,TA_Meas_QMH101,,GenWind,,GenWind,
time,status,PA,status,PR,status,RH,status,SR,status,TA,status,DirAvg,status,SpdAvg,
2017-01-21, 14:58:04,VALID,919.091,VALID,0,INVALID,125.26,VALID,130.004,VALID,19.3338,VALID,84,VALID,0,
2017-01-21, 14:59:04,VALID,919.121,VALID,0,INVALID,126.061,VALID,133.012,VALID,19.3533,VALID,84,VALID,0,
2017-01-21, 15:00:04,VALID,919.166,VALID,0,INVALID,125.649,VALID,136.343,VALID,19.3728,VALID,113,VALID,0.757422,
2017-01-21, 15:03:04,VALID,919.228,VALID,0,INVALID,123.957,VALID,145.583,VALID,19.5663,VALID,128,VALID,0.944531,
2017-01-21, 15:04:04,VALID,919.235,VALID,0,INVALID,119.238,VALID,149.021,VALID,19.6443,VALID,128,VALID,0.983984,
2017-01-21, 15:05:04,VALID,919.267,VALID,0,VALID,104,VALID,152.781,VALID,19.7433,VALID,139,VALID,0.985156,
2017-01-21, 15:06:04,VALID,919.251,VALID,0,INVALID,116.181,VALID,156.542,VALID,19.7808,VALID,158,VALID,1.17031,
2017-01-21, 15:09:04,VALID,919.281,VALID,0,INVALID,113.879,VALID,168.575,VALID,19.8018,VALID,164,VALID,1.44336,
2017-01-21, 15:11:04,VALID,919.34,VALID,0,INVALID,118.3,VALID,175.774,VALID,19.8783,VALID,169,VALID,0.623438,
2017-01-21, 15:13:04,VALID,919.375,VALID,0,VALID,104,VALID,182.972,VALID,19.9173,VALID,157,VALID,1.46523,
2017-01-21, 15:14:04,VALID,919.365,VALID,0,VALID,104,VALID,186.625,VALID,19.9188,VALID,154,VALID,0,
2017-01-21, 16:11:04,VALID,919.499,VALID,0,VALID,73.4364,VALID,355.63,VALID,23.1136,VALID,51,VALID,0,
2017-01-21, 16:13:04,VALID,919.532,VALID,0,VALID,71.4848,VALID,408.491,VALID,23.1917,VALID,137,VALID,0,
2017-01-21, 16:15:04,VALID,919.54,VALID,0,VALID,69.2969,VALID,376.151,VALID,23.504,VALID,143,VALID,0,
2017-01-21, 16:16:04,VALID,919.543,VALID,0,VALID,68.1457,VALID,522.594,VALID,23.5235,VALID,147,VALID,0,
2017-01-21, 16:18:04,VALID,919.56,VALID,0,VALID,69.4951,VALID,499.816,VALID,23.7755,VALID,146,VALID,0,
2017-01-21, 16:19:04,VALID,919.533,VALID,0,VALID,68.9767,VALID,662.804,VALID,23.7932,VALID,155,VALID,0.0296875,
2017-01-21, 16:20:04,VALID,919.563,VALID,0,VALID,68.0619,VALID,636.481,VALID,23.8536,VALID,188,VALID,0,
2017-01-21, 16:21:04,VALID,919.535,VALID,0,VALID,67.3453,VALID,617.142,VALID,23.9103,VALID,158,VALID,0,
2017-01-21, 16:22:04,VALID,919.53,VALID,0,VALID,65.8358,VALID,583.083,VALID,24.125,VALID,153,VALID,0,
2017-01-21, 16:23:04,VALID,919.513,VALID,0,VALID,66.1636,VALID,599.307,VALID,24.2031,VALID,144,VALID,0,
2017-01-21, 16:24:04,VALID,919.523,VALID,0,VALID,65.3174,VALID,595.117,VALID,24.3398,VALID,146,VALID,0,
2017-01-21, 16:25:04,VALID,919.508,VALID,0,VALID,62.2681,VALID,592.216,VALID,24.5368,VALID,185,VALID,1.28242,
2017-01-21, 16:26:04,VALID,919.499,VALID,0,VALID,62.6035,VALID,592.108,VALID,24.5778,VALID,160,VALID,1.11875,
2017-01-21, 16:27:04,VALID,919.509,VALID,0,VALID,59.1958,VALID,593.29,VALID,24.6735,VALID,174,VALID,0.769922,
2017-01-21, 16:29:04,VALID,919.487,VALID,0,VALID,61.1245,VALID,586.844,VALID,24.7693,VALID,160,VALID,1.34375,
2017-01-21, 16:31:04,VALID,919.5,VALID,0,VALID,64.3188,VALID,584.372,VALID,24.7321,VALID,124,VALID,1.20469,
2017-01-21, 16:32:04,VALID,919.477,VALID,0,VALID,65.2564,VALID,581.257,VALID,24.9078,VALID,142,VALID,0.264453,
2017-01-21, 16:33:04,VALID,919.468,VALID,0,VALID,65.2717,VALID,574.488,VALID,25.1812,VALID,177,VALID,0.549219,
2017-01-21, 16:35:04,VALID,919.459,VALID,0,VALID,63.7013,VALID,572.124,VALID,25.3765,VALID,149,VALID,0.794531,
2017-01-21, 16:37:04,VALID,919.451,VALID,0,VALID,63.7927,VALID,573.199,VALID,25.3355,VALID,163,VALID,0.825781,
2017-01-21, 16:38:04,VALID,919.462,VALID,0,VALID,64.1587,VALID,576.959,VALID,25.4917,VALID,127,VALID,0.355859,
2017-01-21, 16:39:04,VALID,919.45,VALID,0,VALID,62.1308,VALID,574.595,VALID,25.4722,VALID,93,VALID,0,
2017-01-21, 16:40:04,VALID,919.496,VALID,0,VALID,65.2336,VALID,578.678,VALID,25.2379,VALID,132,VALID,1.72148,
2017-01-21, 16:41:04,VALID,919.48,VALID,0,VALID,66.1255,VALID,581.901,VALID,24.9821,VALID,105,VALID,1.90625,
2017-01-21, 16:44:04,VALID,919.505,VALID,0,VALID,65.5309,VALID,587.488,VALID,24.3593,VALID,146,VALID,1.83516,
2017-01-21, 16:45:04,VALID,919.463,VALID,0,VALID,65.5309,VALID,589.207,VALID,24.3983,VALID,126,VALID,0.889453,
2017-01-21, 16:46:04,VALID,919.462,VALID,0,VALID,66.3313,VALID,591.786,VALID,24.4764,VALID,149,VALID,0.980078,
2017-01-21, 16:47:04,VALID,919.448,VALID,0,VALID,68.2982,VALID,594.15,VALID,24.7302,VALID,130,VALID,0.948047,
2017-01-21, 16:48:04,VALID,919.454,VALID,0,VALID,64.3569,VALID,596.406,VALID,24.7888,VALID,154,VALID,2.31367,
2017-01-21, 16:49:04,VALID,919.445,VALID,0,VALID,64.273,VALID,594.794,VALID,24.4941,VALID,160,VALID,0.983203,
2017-01-21, 16:50:04,VALID,919.432,VALID,0,VALID,65.2031,VALID,584.48,VALID,24.5935,VALID,174,VALID,0,
2017-01-21, 16:51:04,VALID,919.467,VALID,0,VALID,65.0125,VALID,561.165,VALID,24.8278,VALID,137,VALID,2.05547,
2017-01-21, 16:52:04,VALID,919.456,VALID,0,VALID,63.8004,VALID,524.313,VALID,24.945,VALID,147,VALID,0,
2017-01-21, 16:53:04,VALID,919.427,VALID,0,VALID,64.3721,VALID,464.468,VALID,25.1012,VALID,135,VALID,1.65352,
2017-01-21, 16:54:04,VALID,919.431,VALID,0,VALID,63.3811,VALID,381.953,VALID,25.0621,VALID,145,VALID,1.85898,
2017-01-21, 16:55:04,VALID,919.431,VALID,0,VALID,63.3506,VALID,292.777,VALID,25.0036,VALID,140,VALID,1.28398,
2017-01-21, 16:57:04,VALID,919.374,VALID,0,VALID,62.6111,VALID,136.45,VALID,25.0036,VALID,72,VALID,1.41562,
2017-01-21, 16:58:04,VALID,919.412,VALID,0,VALID,61.9174,VALID,92.7217,VALID,25.1598,VALID,167,VALID,1.1375,
2017-01-21, 16:59:04,VALID,919.376,VALID,0,VALID,61.3075,VALID,69.407,VALID,25.4527,VALID,163,VALID,0.219531,
2017-01-21, 17:00:04,VALID,919.402,VALID,0,VALID,60.2097,VALID,59.415,VALID,25.7456,VALID,187,VALID,0,
2017-01-21, 17:01:04,VALID,919.39,VALID,0,VALID,59.2797,VALID,56.1917,VALID,25.9624,VALID,177,VALID,0.382031,
2017-01-21, 17:02:04,VALID,919.388,VALID,0,VALID,60.69,VALID,55.762,VALID,26.1558,VALID,106,VALID,0.0417969,
2017-01-21, 17:03:04,VALID,919.383,VALID,0,VALID,60.4003,VALID,56.0843,VALID,26.1753,VALID,119,VALID,0.0402344,
2017-01-21, 17:04:04,VALID,919.351,VALID,0,VALID,59.4474,VALID,56.2992,VALID,26.0581,VALID,127,VALID,1.20547,
2017-01-21, 17:06:04,VALID,919.349,VALID,0,VALID,61.0788,VALID,56.1917,VALID,26.0757,VALID,62,VALID,0.322656,
2017-01-21, 17:07:04,VALID,919.384,VALID,0,VALID,55.1478,VALID,56.1917,VALID,26.0972,VALID,144,VALID,2.29023,
2017-01-21, 17:08:04,VALID,919.397,VALID,0,VALID,55.7195,VALID,56.2992,VALID,25.8999,VALID,47,VALID,1.01289,
2017-01-21, 17:09:04,VALID,919.395,VALID,0,VALID,56.3218,VALID,56.6215,VALID,25.978,VALID,128,VALID,0.0417969,
2017-01-21, 17:10:04,VALID,919.381,VALID,0,VALID,55.75,VALID,57.2661,VALID,25.8999,VALID,154,VALID,2.61797,
2017-01-21, 17:11:04,VALID,919.413,VALID,0,VALID,55.0334,VALID,60.2745,VALID,25.8237,VALID,147,VALID,2.31758,
2017-01-21, 17:12:04,VALID,919.367,VALID,0,VALID,56.2379,VALID,69.7293,VALID,25.6655,VALID,97,VALID,0.00117188,
2017-01-21, 17:13:04,VALID,919.364,VALID,0,VALID,54.0653,VALID,92.3994,VALID,25.5679,VALID,150,VALID,0.708984,
2017-01-21, 17:14:04,VALID,919.355,VALID,0,VALID,55.7958,VALID,148.699,VALID,25.5484,VALID,111,VALID,0,
2017-01-21, 17:15:04,VALID,919.352,VALID,0,VALID,53.6841,VALID,240.346,VALID,25.4898,VALID,142,VALID,1.06914,
2017-01-21, 17:16:04,VALID,919.34,VALID,0,VALID,52.1975,VALID,361.862,VALID,25.5289,VALID,130,VALID,0.196094,
2017-01-21, 17:17:04,VALID,919.324,VALID,0,VALID,53.0895,VALID,484.774,VALID,25.6089,VALID,108,VALID,0.297266,
2017-01-21, 17:18:04,VALID,919.37,VALID,0,VALID,54.0729,VALID,582.653,VALID,25.6284,VALID,161,VALID,0.462109,
2017-01-21, 17:19:04,VALID,919.368,VALID,0,VALID,52.998,VALID,646.473,VALID,25.8823,VALID,214,VALID,0.661328,
2017-01-21, 17:20:04,VALID,919.371,VALID,0,VALID,53.7832,VALID,674.301,VALID,26.0757,VALID,203,VALID,0,
2017-01-21, 17:21:04,VALID,919.407,VALID,0,VALID,54.7438,VALID,687.301,VALID,26.271,VALID,194,VALID,0.121094,
2017-01-21, 17:22:04,VALID,919.394,VALID,0,VALID,55.6509,VALID,693.318,VALID,26.2905,VALID,178,VALID,0.207422,
2017-01-21, 17:23:04,VALID,919.408,VALID,0,VALID,54.0195,VALID,603.067,VALID,26.3882,VALID,202,VALID,1.43516,
2017-01-21, 17:24:04,VALID,919.406,VALID,0,VALID,53.7603,VALID,512.279,VALID,26.3686,VALID,200,VALID,2.02031,
2017-01-21, 17:25:04,VALID,919.394,VALID,0,VALID,54.7666,VALID,468.766,VALID,26.1733,VALID,258,VALID,0.0417969,
2017-01-21, 17:26:04,VALID,919.427,VALID,0,VALID,57.046,VALID,516.47,VALID,25.9565,VALID,264,VALID,0,
2017-01-21, 17:27:04,VALID,919.388,VALID,0,VALID,59.3712,VALID,622.299,VALID,26.1127,VALID,130,VALID,0,
2017-01-21, 17:28:04,VALID,919.389,VALID,0,VALID,56.337,VALID,749.939,VALID,26.3296,VALID,160,VALID,0.798437,
2017-01-21, 17:29:04,VALID,919.359,VALID,0,VALID,56.4514,VALID,681.499,VALID,26.2494,VALID,143,VALID,0,
2017-01-21, 17:30:04,VALID,919.34,VALID,0,VALID,57.3815,VALID,630.68,VALID,26.4447,VALID,75,VALID,0,
2017-01-21, 17:31:04,VALID,919.323,VALID,0,VALID,55.8034,VALID,670.325,VALID,26.6421,VALID,66,VALID,0,
2017-01-21, 17:32:04,VALID,919.328,VALID,0,VALID,56.764,VALID,675.16,VALID,26.6987,VALID,17,VALID,0.150781,
2017-01-21, 17:33:04,VALID,919.304,VALID,0,VALID,55.1783,VALID,390.763,VALID,26.6401,VALID,306,VALID,0,
2017-01-21, 17:34:04,VALID,919.286,VALID,0,VALID,54.6218,VALID,664.309,VALID,26.5444,VALID,192,VALID,0,
2017-01-21, 17:35:04,VALID,919.252,VALID,0,VALID,55.163,VALID,652.812,VALID,26.5444,VALID,251,VALID,2.12852,
2017-01-21, 17:36:04,VALID,919.204,VALID,0,VALID,55.4222,VALID,630.25,VALID,26.4468,VALID,237,VALID,0.475391,
2017-01-21, 17:37:04,VALID,919.206,VALID,0,VALID,53.7527,VALID,712.55,VALID,26.31,VALID,235,VALID,0.808594,
2017-01-21, 17:38:04,VALID,919.167,VALID,0,VALID,55.59,VALID,749.402,VALID,26.1538,VALID,236,VALID,0.133594,
2017-01-21, 17:39:04,VALID,919.154,VALID,0,VALID,55.8187,VALID,760.146,VALID,26.2534,VALID,249,VALID,0,
2017-01-21, 17:40:04,VALID,919.184,VALID,0,VALID,56.337,VALID,758.32,VALID,26.4097,VALID,241,VALID,0,
2017-01-21, 17:41:04,VALID,919.151,VALID,0,VALID,54.4236,VALID,759.287,VALID,26.5444,VALID,192,VALID,1.19922,
2017-01-21, 17:42:04,VALID,919.155,VALID,0,VALID,55.0411,VALID,682.144,VALID,26.6812,VALID,213,VALID,0.253125,
2017-01-21, 17:43:04,VALID,919.162,VALID,0,VALID,55.0792,VALID,752.303,VALID,26.7984,VALID,125,VALID,1.43203,
2017-01-21, 17:44:04,VALID,919.142,VALID,0,VALID,53.5774,VALID,735.22,VALID,26.7788,VALID,185,VALID,0.140625,
2017-01-21, 17:45:04,VALID,919.128,VALID,0,VALID,53.3258,VALID,702.235,VALID,26.896,VALID,243,VALID,0,
2017-01-21, 17:46:04,VALID,919.093,VALID,0,VALID,52.9904,VALID,675.912,VALID,26.9156,VALID,232,VALID,0,
2017-01-21, 17:47:04,VALID,919.092,VALID,0,VALID,52.167,VALID,752.84,VALID,26.859,VALID,204,VALID,0.389062,
2017-01-21, 17:48:04,VALID,919.088,VALID,0,VALID,51.763,VALID,723.401,VALID,26.8004,VALID,219,VALID,0.944141,
2017-01-21, 17:49:04,VALID,919.047,VALID,0,VALID,51.9765,VALID,743.385,VALID,26.7593,VALID,230,VALID,0.417969,
2017-01-21, 17:50:04,VALID,919.042,VALID,0,VALID,53.3105,VALID,751.443,VALID,26.8374,VALID,169,VALID,0.833203,
2017-01-21, 17:51:04,VALID,918.974,VALID,0,VALID,53.5545,VALID,745.534,VALID,26.9546,VALID,178,VALID,0,
2017-01-21, 17:52:04,VALID,918.972,VALID,0,VALID,53.1581,VALID,743.17,VALID,27.1695,VALID,220,VALID,0.453516,
2017-01-21, 17:53:04,VALID,918.948,VALID,0,VALID,52.1289,VALID,744.245,VALID,27.15,VALID,242,VALID,0.849219,
2017-01-21, 17:54:04,VALID,918.897,VALID,0,VALID,54.0119,VALID,745.319,VALID,26.8765,VALID,244,VALID,0.489062,
2017-01-21, 17:55:04,VALID,918.923,VALID,0,VALID,54.9267,VALID,743.6,VALID,26.5835,VALID,240,VALID,0,
2017-01-21, 17:56:04,VALID,918.924,VALID,0,VALID,55.4985,VALID,746.179,VALID,26.6226,VALID,191,VALID,1.52188,
2017-01-21, 17:57:04,VALID,918.929,VALID,0,VALID,54.4617,VALID,749.187,VALID,26.7418,VALID,127,VALID,0.0246094,
2017-01-21, 17:58:04,VALID,918.929,VALID,0,VALID,55.2926,VALID,749.402,VALID,26.7398,VALID,183,VALID,0.621094,
2017-01-21, 17:59:04,VALID,918.941,VALID,0,VALID,53.4706,VALID,752.088,VALID,26.7593,VALID,182,VALID,0.566406,
2017-01-21, 18:00:04,VALID,918.936,VALID,0,VALID,53.4706,VALID,748.22,VALID,26.896,VALID,178,VALID,0,
2017-01-21, 18:01:04,VALID,918.868,VALID,0,VALID,53.8061,VALID,750.154,VALID,26.9546,VALID,284,VALID,0.636328,
2017-01-21, 18:02:04,VALID,918.866,VALID,0,VALID,54.5227,VALID,751.443,VALID,27.0132,VALID,163,VALID,1.91094,
2017-01-21, 18:03:04,VALID,918.848,VALID,0,VALID,52.7235,VALID,751.981,VALID,27.0914,VALID,214,VALID,0,
2017-01-21, 18:04:04,VALID,918.841,VALID,0,VALID,52.8379,VALID,752.733,VALID,27.1695,VALID,145,VALID,0.946484,
2017-01-21, 18:05:04,VALID,918.807,VALID,0,VALID,53.7832,VALID,753.162,VALID,26.9937,VALID,182,VALID,0.662891,
2017-01-21, 18:06:04,VALID,918.787,VALID,0,VALID,51.824,VALID,756.493,VALID,26.9742,VALID,146,VALID,1.6168,
2017-01-21, 18:07:04,VALID,918.83,VALID,0,VALID,52.5406,VALID,760.683,VALID,26.7223,VALID,156,VALID,0.725391,
2017-01-21, 18:08:04,VALID,918.792,VALID,0,VALID,53.928,VALID,761.543,VALID,26.6205,VALID,132,VALID,1.09844,
2017-01-21, 18:09:04,VALID,918.853,VALID,0,VALID,53.0666,VALID,760.898,VALID,26.5444,VALID,167,VALID,1.83828,
2017-01-21, 18:10:04,VALID,918.842,VALID,0,VALID,53.1276,VALID,761.221,VALID,26.4838,VALID,187,VALID,1.4,
2017-01-21, 18:11:04,VALID,918.819,VALID,0,VALID,55.7729,VALID,762.51,VALID,26.7593,VALID,89,VALID,0.00195313,
2017-01-21, 18:12:04,VALID,918.787,VALID,0,VALID,54.1872,VALID,765.733,VALID,27.1109,VALID,64,VALID,0,
2017-01-21, 18:13:04,VALID,918.788,VALID,0,VALID,51.6791,VALID,766.163,VALID,27.1695,VALID,167,VALID,0.601563,
2017-01-21, 18:14:04,VALID,918.771,VALID,0,VALID,52.9675,VALID,765.841,VALID,27.3063,VALID,85,VALID,0,
2017-01-21, 18:15:04,VALID,918.763,VALID,0,VALID,51.7401,VALID,767.56,VALID,27.5387,VALID,69,VALID,0,
2017-01-21, 18:16:04,VALID,918.723,VALID,0,VALID,51.0007,VALID,770.031,VALID,27.8143,VALID,160,VALID,0,
2017-01-21, 18:17:04,VALID,918.701,VALID,0,VALID,50.8863,VALID,772.072,VALID,27.949,VALID,258,VALID,0,
2017-01-21, 18:18:04,VALID,918.678,VALID,0,VALID,50.0172,VALID,772.502,VALID,27.9902,VALID,246,VALID,0,
2017-01-21, 18:19:04,VALID,918.647,VALID,0,VALID,49.9944,VALID,775.618,VALID,27.9685,VALID,162,VALID,0.0289063,
2017-01-21, 18:20:04,VALID,918.662,VALID,0,VALID,47.9284,VALID,775.51,VALID,27.9511,VALID,188,VALID,1.74414,
2017-01-21, 18:21:04,VALID,918.649,VALID,0,VALID,48.5383,VALID,777.014,VALID,28.0293,VALID,183,VALID,0.00273437,
2017-01-21, 18:22:04,VALID,918.625,VALID,0,VALID,48.7289,VALID,777.122,VALID,28.0467,VALID,213,VALID,0,
2017-01-21, 18:23:04,VALID,918.609,VALID,0,VALID,47.9589,VALID,776.799,VALID,28.1074,VALID,210,VALID,0,
2017-01-21, 18:24:04,VALID,918.592,VALID,0,VALID,46.4342,VALID,778.089,VALID,28.0293,VALID,184,VALID,0.490625,
2017-01-21, 18:25:04,VALID,918.526,VALID,0,VALID,47.5777,VALID,780.345,VALID,27.9316,VALID,160,VALID,0,
2017-01-21, 18:26:04,VALID,918.54,VALID,0,VALID,47.9208,VALID,782.064,VALID,27.9902,VALID,220,VALID,3.03945,
2017-01-21, 18:27:04,VALID,918.515,VALID,0,VALID,48.5307,VALID,784.32,VALID,27.8708,VALID,211,VALID,2.49375,
2017-01-21, 18:28:04,VALID,918.501,VALID,0,VALID,49.3845,VALID,785.287,VALID,27.7948,VALID,221,VALID,1.78008,
2017-01-21, 18:29:04,VALID,918.515,VALID,0,VALID,47.2347,VALID,786.254,VALID,27.7362,VALID,156,VALID,1.54414,
2017-01-21, 18:30:04,VALID,918.466,VALID,0,VALID,49.2625,VALID,789.048,VALID,27.6559,VALID,164,VALID,1.83516,
2017-01-21, 18:31:04,VALID,918.474,VALID,0,VALID,47.3567,VALID,789.37,VALID,27.7557,VALID,177,VALID,1.37148,
2017-01-21, 18:32:04,VALID,918.488,VALID,0,VALID,47.3262,VALID,791.197,VALID,27.734,VALID,156,VALID,0.289453,
2017-01-21, 18:33:04,VALID,918.48,VALID,0,VALID,48.0428,VALID,791.949,VALID,27.7536,VALID,183,VALID,1.21563,
2017-01-21, 18:34:04,VALID,918.471,VALID,0,VALID,47.8751,VALID,794.312,VALID,27.7166,VALID,137,VALID,0.622266,
2017-01-21, 18:35:04,VALID,918.472,VALID,0,VALID,49.0033,VALID,794.957,VALID,27.7145,VALID,180,VALID,2.63984,
2017-01-21, 18:36:04,VALID,918.451,VALID,0,VALID,48.5764,VALID,793.99,VALID,27.9316,VALID,170,VALID,0,
2017-01-21, 18:37:04,VALID,918.467,VALID,0,VALID,46.2894,VALID,794.85,VALID,28.1835,VALID,204,VALID,0.294141,
2017-01-21, 18:38:04,VALID,918.463,VALID,0,VALID,46.358,VALID,793.453,VALID,28.4201,VALID,202,VALID,0,
2017-01-21, 18:39:04,VALID,918.465,VALID,0,VALID,46.4876,VALID,795.387,VALID,28.5352,VALID,169,VALID,0,
2017-01-21, 18:40:04,VALID,918.444,VALID,0,VALID,45.0239,VALID,795.494,VALID,28.672,VALID,214,VALID,0,
2017-01-21, 18:41:04,VALID,918.451,VALID,0,VALID,45.7405,VALID,796.569,VALID,28.7697,VALID,195,VALID,0.0820313,
2017-01-21, 18:42:04,VALID,918.431,VALID,0,VALID,45.3746,VALID,803.875,VALID,28.8479,VALID,128,VALID,0.523047,
2017-01-21, 18:43:04,VALID,918.418,VALID,0,VALID,45.1992,VALID,807.098,VALID,28.8306,VALID,174,VALID,0.576953,
2017-01-21, 18:44:04,VALID,918.443,VALID,0,VALID,43.8041,VALID,808.924,VALID,28.6525,VALID,93,VALID,0.0914062,
2017-01-21, 18:45:04,VALID,918.388,VALID,0,VALID,45.7253,VALID,811.825,VALID,28.4375,VALID,79,VALID,1.15742,
2017-01-21, 18:46:04,VALID,918.402,VALID,0,VALID,47.6082,VALID,817.412,VALID,28.1053,VALID,81,VALID,1.45625,
2017-01-21, 18:47:04,VALID,918.415,VALID,0,VALID,46.6096,VALID,819.024,VALID,27.8122,VALID,138,VALID,0.709375,
2017-01-21, 18:48:04,VALID,918.433,VALID,0,VALID,43.888,VALID,813.222,VALID,27.7927,VALID,116,VALID,1.32578,
2017-01-21, 18:49:04,VALID,918.382,VALID,0,VALID,43.6441,VALID,814.511,VALID,27.6385,VALID,61,VALID,2.16094,
2017-01-21, 18:50:04,VALID,918.348,VALID,0,VALID,48.4621,VALID,812.792,VALID,27.7166,VALID,46,VALID,2.53008,
2017-01-21, 18:51:04,VALID,918.374,VALID,0,VALID,45.4203,VALID,813.437,VALID,27.9706,VALID,120,VALID,2.00742,
2017-01-21, 18:52:04,VALID,918.326,VALID,0,VALID,45.3669,VALID,813.544,VALID,27.912,VALID,129,VALID,0.941016,
2017-01-21, 18:53:04,VALID,918.322,VALID,0,VALID,45.8472,VALID,813.867,VALID,27.7752,VALID,114,VALID,1.63945,
2017-01-21, 18:54:04,VALID,918.296,VALID,0,VALID,46.9145,VALID,815.801,VALID,27.7362,VALID,57,VALID,1.15703,
2017-01-21, 18:55:04,VALID,918.298,VALID,0,VALID,48.9347,VALID,815.586,VALID,27.9511,VALID,10,VALID,0,
2017-01-21, 18:56:04,VALID,918.291,VALID,0,VALID,46.4647,VALID,814.726,VALID,28.3789,VALID,86,VALID,0,
2017-01-21, 18:57:04,VALID,918.282,VALID,0,VALID,44.1243,VALID,812.148,VALID,28.5548,VALID,145,VALID,2.56875,
2017-01-21, 18:58:04,VALID,918.261,VALID,0,VALID,45.8548,VALID,813.33,VALID,28.3963,VALID,203,VALID,0.0902344,
2017-01-21, 18:59:04,VALID,918.247,VALID,0,VALID,44.9782,VALID,818.487,VALID,28.6351,VALID,191,VALID,0.175781,
2017-01-21, 19:00:04,VALID,918.238,VALID,0,VALID,44.9858,VALID,824.074,VALID,28.7307,VALID,209,VALID,0.286719,
2017-01-21, 19:01:04,VALID,918.253,VALID,0,VALID,41.3037,VALID,827.189,VALID,28.6503,VALID,123,VALID,1.78242,
2017-01-21, 19:02:04,VALID,918.215,VALID,0,VALID,41.5781,VALID,826.545,VALID,28.457,VALID,142,VALID,0.0875,
2017-01-21, 19:03:04,VALID,918.191,VALID,0,VALID,43.5907,VALID,823.322,VALID,28.457,VALID,153,VALID,0.955078,
2017-01-21, 19:04:04,VALID,918.214,VALID,0,VALID,40.6023,VALID,825.363,VALID,28.5548,VALID,156,VALID,2.74375,
2017-01-21, 19:05:04,VALID,918.169,VALID,0,VALID,43.8575,VALID,824.718,VALID,28.4158,VALID,165,VALID,1.71289,
2017-01-21, 19:06:04,VALID,918.154,VALID,0,VALID,42.4853,VALID,822.677,VALID,28.2616,VALID,155,VALID,1.3875,
2017-01-21, 19:07:04,VALID,918.101,VALID,0,VALID,43.0189,VALID,823.644,VALID,28.2595,VALID,180,VALID,0.873828,
2017-01-21, 19:08:04,VALID,918.092,VALID,0,VALID,42.653,VALID,823.107,VALID,28.2986,VALID,136,VALID,0,
2017-01-21, 19:09:04,VALID,918.088,VALID,0,VALID,44.3073,VALID,826.652,VALID,28.4375,VALID,138,VALID,0.0613281,
2017-01-21, 19:10:04,VALID,918.106,VALID,0,VALID,41.0902,VALID,833.099,VALID,28.6503,VALID,151,VALID,1.68125,
2017-01-21, 19:11:04,VALID,918.112,VALID,0,VALID,40.6481,VALID,832.024,VALID,28.5938,VALID,142,VALID,1.98984,
2017-01-21, 19:12:04,VALID,918.111,VALID,0,VALID,42.8741,VALID,833.528,VALID,28.4375,VALID,130,VALID,0.502734,
2017-01-21, 19:13:04,VALID,918.026,VALID,0,VALID,41.2274,VALID,836.644,VALID,28.5938,VALID,86,VALID,1.66016,
2017-01-21, 19:14:04,VALID,918.053,VALID,0,VALID,41.479,VALID,841.801,VALID,28.494,VALID,82,VALID,1.99883,
2017-01-21, 19:15:04,VALID,918.025,VALID,0,VALID,43.2324,VALID,841.694,VALID,28.3202,VALID,28,VALID,0.310937,
2017-01-21, 19:16:04,VALID,918.014,VALID,0,VALID,42.8817,VALID,846.099,VALID,28.5526,VALID,268,VALID,0,
2017-01-21, 19:17:04,VALID,918.013,VALID,0,VALID,43.1943,VALID,848.14,VALID,28.8088,VALID,227,VALID,0.8,
2017-01-21, 19:18:04,VALID,918.029,VALID,0,VALID,42.0355,VALID,843.521,VALID,28.8284,VALID,266,VALID,0.772656,
2017-01-21, 19:19:04,VALID,917.989,VALID,0,VALID,41.9593,VALID,844.273,VALID,28.6894,VALID,240,VALID,0.761328,
2017-01-21, 19:20:04,VALID,917.943,VALID,0,VALID,42.1804,VALID,834.818,VALID,28.7502,VALID,266,VALID,0,
2017-01-21, 19:21:04,VALID,917.922,VALID,0,VALID,41.7534,VALID,827.297,VALID,28.8675,VALID,218,VALID,1.30977,
2017-01-21, 19:22:04,VALID,917.935,VALID,0,VALID,42.3176,VALID,836.967,VALID,28.9066,VALID,237,VALID,1.74531,
2017-01-21, 19:23:04,VALID,917.937,VALID,0,VALID,41.5552,VALID,845.669,VALID,28.7915,VALID,263,VALID,0.914453,
2017-01-21, 19:24:04,VALID,917.91,VALID,0,VALID,42.1651,VALID,848.033,VALID,28.6525,VALID,239,VALID,0,
2017-01-21, 19:25:04,VALID,917.891,VALID,0,VALID,43.0037,VALID,837.504,VALID,28.7697,VALID,292,VALID,0.350391,
2017-01-21, 19:26:04,VALID,917.874,VALID,0,VALID,42.4243,VALID,835.14,VALID,28.8066,VALID,279,VALID,0,
2017-01-21, 19:27:04,VALID,917.844,VALID,0,VALID,41.9669,VALID,836.107,VALID,29.0607,VALID,205,VALID,0,
2017-01-21, 19:28:04,VALID,917.834,VALID,0,VALID,42.7369,VALID,826.33,VALID,29.2953,VALID,217,VALID,0.208203,
2017-01-21, 19:29:04,VALID,917.839,VALID,0,VALID,43.5907,VALID,822.999,VALID,29.393,VALID,242,VALID,0,
2017-01-21, 19:30:04,VALID,917.843,VALID,0,VALID,41.4943,VALID,829.016,VALID,29.3148,VALID,264,VALID,0,
2017-01-21, 19:31:04,VALID,917.813,VALID,0,VALID,42.7521,VALID,828.371,VALID,29.2171,VALID,231,VALID,0.00117188,
2017-01-21, 19:32:04,VALID,917.801,VALID,0,VALID,41.6696,VALID,827.512,VALID,29.2366,VALID,219,VALID,0.0203125,
2017-01-21, 19:33:04,VALID,917.766,VALID,0,VALID,40.427,VALID,828.264,VALID,29.2171,VALID,256,VALID,0,
2017-01-21, 19:34:04,VALID,917.774,VALID,0,VALID,41.3723,VALID,830.413,VALID,29.3148,VALID,174,VALID,0.0417969,
2017-01-21, 19:35:04,VALID,917.76,VALID,0,VALID,39.6341,VALID,831.272,VALID,29.5125,VALID,269,VALID,0.0191406,
2017-01-21, 19:36:04,VALID,917.763,VALID,0,VALID,38.0637,VALID,828.371,VALID,29.493,VALID,253,VALID,1.51914,
2017-01-21, 19:37:04,VALID,917.724,VALID,0,VALID,41.3494,VALID,826.008,VALID,29.1216,VALID,267,VALID,1.68945,
2017-01-21, 19:38:04,VALID,917.744,VALID,0,VALID,39.9467,VALID,825.47,VALID,28.7697,VALID,250,VALID,2.65586,
2017-01-21, 19:39:04,VALID,917.757,VALID,0,VALID,40.8996,VALID,831.595,VALID,28.5157,VALID,207,VALID,0.154687,
2017-01-21, 19:40:04,VALID,917.742,VALID,0,VALID,40.5261,VALID,834.388,VALID,28.5548,VALID,257,VALID,1.02852,
2017-01-21, 19:41:04,VALID,917.75,VALID,0,VALID,41.357,VALID,832.776,VALID,28.3789,VALID,254,VALID,1.37188,
2017-01-21, 19:42:04,VALID,917.751,VALID,0,VALID,42.9351,VALID,831.809,VALID,28.3202,VALID,253,VALID,0,
2017-01-21, 19:43:04,VALID,917.704,VALID,0,VALID,41.54,VALID,830.735,VALID,28.3789,VALID,258,VALID,0,
2017-01-21, 19:44:04,VALID,917.665,VALID,0,VALID,41.1131,VALID,827.834,VALID,28.3984,VALID,239,VALID,0,
2017-01-21, 19:45:04,VALID,917.677,VALID,0,VALID,41.6925,VALID,828.909,VALID,28.6329,VALID,203,VALID,0,
2017-01-21, 19:46:04,VALID,917.649,VALID,0,VALID,41.136,VALID,831.809,VALID,28.9261,VALID,171,VALID,0,
2017-01-21, 19:47:04,VALID,917.624,VALID,0,VALID,39.8628,VALID,829.338,VALID,29.102,VALID,179,VALID,1.30508,
2017-01-21, 19:48:04,VALID,917.631,VALID,0,VALID,39.3902,VALID,826.975,VALID,29.1802,VALID,212,VALID,1.51641,